Flag for Iceland Weather past 2 weeks in Reykjavik, Iceland

Now
45 °F

Broken clouds.


Feels Like: 37 °F
Forecast: N/A
Wind: 18 mph from Southeast

Location: Reykjavik Airport


UV Index: N/A

Visibility: N/A


Pressure: 30.07 "Hg

Humidity: 66%

Dew point: 34 °F

Location of ReykjavikLocation

Historic Weather in Reykjavik

°F

Reykjavik temperature yesterday

Maximum temperature yesterday: 39 °F (at 12:00 PM)
Minimum temperature yesterday: 34 °F (at 12:00 AM)
Average temperature yesterday: 36 °F

Past Weeks' High & Low Weather Summary

 TemperatureHumidityPressure
High50 °F (Apr 6, 2:00 PM)100% (Apr 7, 9:00 AM)30.07 "Hg (Apr 7, 9:00 AM)
Low27 °F (Apr 17, 3:00 AM)56% (Apr 17, 11:00 AM)28.77 "Hg (Apr 11, 7:00 PM)
Average38 °F79%29.50 "Hg
* Reported Apr 6 1:00 PM — Apr 21 1:00 PM, Reykjavik, Weather by CustomWeather, © 2014

Note: Actual official high and low records may vary slightly from our data, if they occured in-between our weather recording intervals... More about our weather records

Advertising

Historic Weather Conditions — Data for Previous 24 hours

 ConditionsComfort  
Time TempWeatherWind HumidityBarometerVisibility
1:00 PM
Apr 21
41 °FScattered showers. Broken clouds.16 mph81%30.07 "HgN/A
12:00 PM43 °FBroken clouds.18 mph66%30.07 "HgN/A
11:00 AM41 °FBroken clouds.13 mph70%30.07 "HgN/A
10:00 AM41 °FBroken clouds.13 mph70%30.07 "HgN/A
9:00 AM39 °FBroken clouds.9 mph75%30.07 "HgN/A
8:00 AM37 °FPartly sunny.9 mph75%30.07 "HgN/A
7:00 AM36 °FDrizzle. Broken clouds.8 mph81%30.04 "HgN/A
6:00 AM36 °FOvercast.6 mph81%30.04 "HgN/A
5:00 AM34 °FPassing clouds.5 mph87%30.04 "HgN/A
4:00 AM34 °FPassing clouds.8 mph87%30.01 "HgN/A
3:00 AM36 °FSprinkles. Passing clouds.13 mph87%30.01 "HgN/A
2:00 AM34 °FPassing clouds.8 mph93%30.01 "HgN/A
1:00 AM37 °FScattered showers. Partly cloudy.12 mph75%30.01 "HgN/A
12:00 AM37 °FLight rain. Partly cloudy.10 mph70%29.98 "HgN/A
11:00 PM
Apr 20
36 °FPassing clouds.10 mph75%29.98 "HgN/A
10:00 PM37 °FSprinkles. Passing clouds.13 mph70%29.95 "HgN/A
9:00 PM36 °FPartly sunny.10 mph81%29.95 "HgN/A
8:00 PM36 °FScattered showers. Partly sunny.14 mph81%29.92 "HgN/A
7:00 PM36 °FScattered showers. Partly sunny.21 mph75%29.92 "HgN/A
6:00 PM37 °FScattered showers. Broken clouds.17 mph70%29.89 "HgN/A
5:00 PM37 °FPartly sunny.17 mph75%29.89 "HgN/A
4:00 PM39 °FScattered showers. Scattered clouds.21 mph65%29.86 "HgN/A
3:00 PM39 °FScattered showers. Passing clouds.23 mph75%29.86 "HgN/A
2:00 PM39 °FPartly sunny.23 mph61%29.86 "HgN/A
Weather by CustomWeather, © 2014

See weather overview